Rochelle, IL

2:31 PM CDT on August 27, 2016 (GMT -0500)
Rochelle

Weather History for KRPJ - February, 2013

Change the Weather History Date:

Tuesday, February 26, 2013

  Actual Average (KRFD) Record (KRFD)
Temperature  
Mean Temperature 32 °F 30 °F  
Max Temperature 34 °F 38 °F 62 °F (2000)
Min Temperature 30 °F 21 °F -8 °F (2015)
Degree Days  
Heating Degree Days 33 35  
Month to date heating degree days 1024  
Since 1 July heating degree days 4933  
Cooling Degree Days 0 0  
Month to date cooling degree days 0  
Year to date cooling degree days 0  
Moisture  
Dew Point 30 °F    
Average Humidity 90    
Maximum Humidity 100    
Minimum Humidity 77    
Precipitation  
Precipitation 0.00 in 0.06 in 1.31 in (2009)
Month to date precipitation 1.29  
Year to date precipitation 2.66  
Snow  
Snow 0.00 in 0.30 in 8.00 in (1912)
Month to date snowfall 7.3  
Since 1 July snowfall 30.6  
Snow Depth -    
Sea Level Pressure  
Sea Level Pressure 29.65 in    
Wind  
Wind Speed 19 mph (NE)    
Max Wind Speed 29 mph    
Max Gust Speed 36 mph    
Visibility 6 miles    
Events Rain , Snow    
T = Trace of Precipitation, MM = Missing Value Source: NWS Daily Summary

Daily Weather History Graph

Daily Weather History Graph

Search for Another Location

Airport or City:

Trip Planner

Search our weather history database for the weather conditions in past years. The results will help you decide how hot, cold, wet, or windy it might be!

Date:

Astronomy

Feb. 26, 2013 Rise Set
Actual Time 6:35 AM CST 5:43 PM CST
Civil Twilight 6:07 AM CST 6:11 PM CST
Nautical Twilight 5:35 AM CST 6:43 PM CST
Astronomical Twilight 5:03 AM CST 7:16 PM CST
Moon 7:02 PM CST (2/26) 6:36 AM CST (2/26)
Length of Visible Light 12h 03m
Length of Day
11h 07m
Full, 99% of the Moon is Illuminated
Feb 26
Full
Mar 4
Last Quarter
Mar 11
New
Mar 19
First Quarter
Mar 27
Full

Hourly Weather History & Observations

Time (CST) Temp. Windchill Dew Point Humidity Pressure Visibility Wind Dir Wind Speed Gust Speed Precip Events Conditions
12:15 AM 32.4 °F 23.5 °F 29.1 °F 88% 29.94 in 10.0 mi East 11.5 mph - N/A   Clear
12:35 AM 32.9 °F 23.7 °F 29.1 °F 86% 29.92 in 10.0 mi East 12.7 mph 17.3 mph N/A   Clear
12:55 AM 32.9 °F 24.1 °F 29.1 °F 86% 29.91 in 10.0 mi ENE 11.5 mph 17.3 mph N/A   Clear
1:15 AM 33.4 °F 23.9 °F 28.9 °F 84% 29.92 in 10.0 mi East 13.8 mph - N/A   Clear
1:35 AM 33.3 °F 22.8 °F 29.1 °F 85% 29.89 in 10.0 mi ENE 16.1 mph - N/A   Clear
1:55 AM 33.3 °F 22.5 °F 28.9 °F 84% 29.86 in 10.0 mi ENE 17.3 mph - N/A   Clear
2:15 AM 33.3 °F 22.8 °F 29.1 °F 85% 29.87 in 10.0 mi ENE 16.1 mph 23.0 mph N/A   Clear
2:35 AM 33.3 °F 22.1 °F 29.1 °F 85% 29.85 in 10.0 mi ENE 18.4 mph - N/A   Clear
2:55 AM 33.3 °F 22.1 °F 28.9 °F 84% 29.83 in 10.0 mi ENE 18.4 mph 25.3 mph N/A   Clear
3:15 AM 33.1 °F 21.9 °F 28.9 °F 85% 29.82 in 10.0 mi ENE 18.4 mph - N/A   Clear
3:35 AM 33.1 °F 21.5 °F 28.9 °F 85% 29.80 in 10.0 mi NE 19.6 mph - N/A   Clear
3:55 AM 33.3 °F 22.1 °F 28.9 °F 84% 29.79 in 10.0 mi NE 18.4 mph - N/A   Scattered Clouds
4:15 AM 33.3 °F 22.1 °F 28.8 °F 84% 29.79 in 10.0 mi ENE 18.4 mph 25.3 mph N/A   Scattered Clouds
4:35 AM 33.3 °F 22.1 °F 28.9 °F 84% 29.78 in 10.0 mi NE 18.4 mph 23.0 mph N/A   Scattered Clouds
4:55 AM 33.3 °F 21.5 °F 28.9 °F 84% 29.77 in 10.0 mi ENE 20.7 mph 25.3 mph N/A   Scattered Clouds
5:15 AM 33.3 °F 21.2 °F 28.9 °F 84% 29.76 in 10.0 mi ENE 21.9 mph 27.6 mph N/A   Clear
5:35 AM 33.3 °F 21.8 °F 28.9 °F 84% 29.73 in 10.0 mi NE 19.6 mph 27.6 mph N/A   Scattered Clouds
5:55 AM 33.1 °F 20.3 °F 28.9 °F 85% 29.71 in 10.0 mi NE 24.2 mph 31.1 mph N/A   Mostly Cloudy
6:15 AM 33.1 °F 20.6 °F 28.8 °F 84% 29.72 in 10.0 mi ENE 23.0 mph 31.1 mph N/A   Scattered Clouds
6:35 AM 33.3 °F 21.5 °F 28.4 °F 82% 29.72 in 10.0 mi ENE 20.7 mph 26.5 mph N/A   Scattered Clouds
6:55 AM 33.3 °F 21.2 °F 28.2 °F 82% 29.72 in 10.0 mi ENE 21.9 mph 31.1 mph N/A   Mostly Cloudy
7:15 AM 33.4 °F 22.0 °F 28.2 °F 81% 29.73 in 10.0 mi ENE 19.6 mph 25.3 mph N/A   Scattered Clouds
7:35 AM 33.3 °F 21.5 °F 28.2 °F 82% 29.71 in 10.0 mi ENE 20.7 mph 28.8 mph N/A   Clear
7:55 AM 33.4 °F 21.1 °F 27.9 °F 80% 29.70 in 10.0 mi ENE 23.0 mph 28.8 mph N/A   Clear
8:15 AM 33.8 °F 21.9 °F 27.9 °F 79% 29.70 in 10.0 mi ENE 21.9 mph 26.5 mph N/A   Clear
8:35 AM 34.0 °F 20.8 °F 27.9 °F 78% 29.68 in 10.0 mi ENE 27.6 mph 33.4 mph N/A   Clear
8:55 AM 34.2 °F 20.8 °F 27.9 °F 78% 29.65 in 10.0 mi ENE 28.8 mph 34.5 mph N/A   Scattered Clouds
9:15 AM 34.2 °F 21.3 °F 27.7 °F 77% 29.64 in 10.0 mi NE 26.5 mph 33.4 mph N/A   Scattered Clouds
9:35 AM 34.2 °F 21.8 °F 27.7 °F 77% 29.63 in 10.0 mi NE 24.2 mph - N/A   Scattered Clouds
9:55 AM 34.0 °F 21.8 °F 28.2 °F 79% 29.62 in 10.0 mi NE 23.0 mph 31.1 mph N/A   Mostly Cloudy
10:15 AM 33.8 °F 21.0 °F 28.2 °F 80% 29.62 in 10.0 mi NE 25.3 mph 32.2 mph N/A   Mostly Cloudy
10:35 AM 34.0 °F 21.3 °F 28.0 °F 79% 29.61 in 10.0 mi NE 25.3 mph 33.4 mph N/A   Mostly Cloudy
10:55 AM 33.8 °F 21.6 °F 28.4 °F 81% 29.61 in 10.0 mi NE 23.0 mph 29.9 mph N/A   Mostly Cloudy
11:15 AM 33.8 °F 22.5 °F 28.6 °F 81% 29.62 in 7.0 mi NE 19.6 mph 27.6 mph N/A Rain Light Rain
11:35 AM 32.2 °F 20.4 °F 30.0 °F 92% 29.63 in 0.5 mi NE 19.6 mph 26.5 mph N/A Snow Snow
11:55 AM 32.0 °F 19.5 °F 31.1 °F 96% 29.61 in 0.2 mi NE 21.9 mph 29.9 mph N/A Snow Snow
12:15 PM 31.8 °F 18.7 °F 31.1 °F 97% 29.58 in 0.8 mi NE 24.2 mph 34.5 mph N/A Snow Light Snow
12:35 PM 31.6 °F 18.1 °F 30.9 °F 97% 29.56 in 0.5 mi NE 25.3 mph 31.1 mph N/A Snow Light Snow
12:55 PM 31.5 °F 17.4 °F 30.7 °F 97% 29.56 in 0.5 mi NE 27.6 mph 33.4 mph N/A Snow Snow
1:15 PM 31.1 °F 16.9 °F 30.6 °F 98% 29.55 in 0.8 mi NE 27.6 mph 35.7 mph N/A Snow Light Snow
1:35 PM 31.1 °F 17.2 °F 30.2 °F 96% 29.54 in 0.5 mi NE 26.5 mph 31.1 mph N/A Snow Snow
1:55 PM 30.9 °F 17.2 °F 30.2 °F 97% 29.54 in 0.2 mi NE 25.3 mph 29.9 mph N/A Snow Snow
2:15 PM 30.9 °F 17.8 °F 30.2 °F 97% 29.55 in 0.5 mi NE 23.0 mph 32.2 mph N/A Snow Snow
2:35 PM 31.1 °F 17.7 °F 30.2 °F 96% 29.55 in 0.8 mi NE 24.2 mph 32.2 mph N/A Snow Light Snow
2:55 PM 31.1 °F 18.0 °F 30.4 °F 97% 29.55 in 1.2 mi NE 23.0 mph 34.5 mph N/A Snow Light Snow
3:15 PM 31.1 °F 18.0 °F 30.2 °F 96% 29.54 in 1.2 mi NE 23.0 mph 31.1 mph N/A Snow Light Snow
3:35 PM 31.3 °F 17.7 °F 30.2 °F 96% 29.55 in 2.0 mi NE 25.3 mph 32.2 mph N/A Snow Light Snow
3:55 PM 31.5 °F 18.8 °F 30.6 °F 96% 29.55 in 0.8 mi NNE 21.9 mph - N/A Snow Light Snow
4:15 PM 31.5 °F 18.2 °F 30.7 °F 97% 29.55 in 0.8 mi NE 24.2 mph 28.8 mph N/A Snow Light Snow
4:35 PM 31.5 °F 18.2 °F 30.7 °F 97% 29.54 in 1.2 mi NNE 24.2 mph 31.1 mph N/A Snow Light Snow
4:55 PM 31.5 °F 18.8 °F 30.7 °F 97% 29.55 in 0.8 mi NNE 21.9 mph 31.1 mph N/A Snow Light Snow
5:15 PM 31.6 °F 19.0 °F 30.9 °F 97% 29.55 in 1.2 mi NNE 21.9 mph 27.6 mph N/A Snow Light Snow
5:35 PM 31.8 °F 19.3 °F 31.1 °F 97% 29.56 in 1.2 mi NNE 21.9 mph 27.6 mph N/A Snow Light Snow
5:55 PM 32.0 °F 19.2 °F 31.5 °F 98% 29.56 in 2.0 mi NNE 23.0 mph 26.5 mph N/A Snow Light Snow
6:15 PM 32.0 °F 20.5 °F 31.5 °F 98% 29.57 in 1.0 mi NNE 18.4 mph - N/A Snow Snow
6:35 PM 32.0 °F 20.1 °F 31.8 °F 99% 29.57 in 1.5 mi NNE 19.6 mph 24.2 mph N/A Snow Light Snow
6:55 PM 32.0 °F 19.5 °F 31.8 °F 99% 29.56 in 1.5 mi NNE 21.9 mph 27.6 mph N/A Snow Light Snow
7:15 PM 32.0 °F 20.1 °F 32.0 °F 100% 29.56 in 0.8 mi NNE 19.6 mph 25.3 mph N/A Snow Snow
7:35 PM 32.0 °F 20.1 °F 32.0 °F 100% 29.56 in 1.2 mi NE 19.6 mph 26.5 mph N/A Snow Light Snow
7:55 PM 32.0 °F 20.1 °F 32.0 °F 100% 29.56 in 2.0 mi NE 19.6 mph 24.2 mph N/A Snow Light Snow
8:15 PM 32.0 °F 20.1 °F 31.8 °F 99% 29.56 in 3.0 mi NNE 19.6 mph - N/A Rain Light Rain
8:35 PM 32.0 °F 20.1 °F 31.6 °F 99% 29.56 in 5.0 mi NNE 19.6 mph 25.3 mph N/A Rain Rain
8:55 PM 32.2 °F 21.1 °F 31.5 °F 97% 29.56 in 7.0 mi NNE 17.3 mph - N/A   Drizzle
9:15 PM 32.4 °F 21.3 °F 31.1 °F 95% 29.56 in 7.0 mi NNE 17.3 mph - N/A Rain Light Rain
9:35 PM 32.4 °F 21.3 °F 31.1 °F 95% 29.56 in 5.0 mi NNE 17.3 mph 21.9 mph N/A Rain Light Rain
9:55 PM 32.4 °F 22.1 °F 31.1 °F 95% 29.56 in 7.0 mi NNE 15.0 mph - N/A Rain Rain
10:15 PM 32.4 °F 22.5 °F 31.1 °F 95% 29.56 in 10.0 mi NNE 13.8 mph - N/A   Light Drizzle
10:35 PM 32.5 °F 21.5 °F 30.9 °F 94% 29.56 in 10.0 mi NNE 17.3 mph - N/A   Overcast
10:55 PM 32.5 °F 21.9 °F 30.9 °F 94% 29.56 in 10.0 mi NNE 16.1 mph 21.9 mph N/A   Overcast
11:15 PM 32.4 °F 21.7 °F 30.9 °F 94% 29.56 in 10.0 mi NNE 16.1 mph - N/A   Overcast
11:35 PM 32.9 °F 22.4 °F 30.7 °F 92% 29.56 in 10.0 mi NNE 16.1 mph - N/A   Overcast
11:55 PM 32.4 °F 23.0 °F 30.7 °F 94% 29.56 in 10.0 mi NNE 12.7 mph - N/A   Overcast